Temperature
9 10 10 9 9 9 8 8 7 8 9 10 11 11 11 10 9 7 7 6 7 7 7 7 7 7 7 7 7 6 6 6 6 6 6 7 6 6 6 6 5 5 5 4
8 9 10 9 10 10 9 9 9 9 9 11 11 11 10 9 8 7 6 5 6 6 6 6 6 6 6 5 5 5 4 4 5 5 6 6 6 6 6 5 5 4 4 3
8 10 10 9 10 10 10 10 10 9 10 10 10 10 9 8 7 6 5 5 5 5 5 5 5 5 4 4 3 3 3 3 4 5 5 5 5 5 5 4 4 4 3 3
7 8 8 11 12 11 10 10 10 10 10 10 10 9 8 8 7 5 5 4 4 4 4 4 4 3 3 2 2 2 2 3 4 5 5 5 5 4 4 4 3 3 2 2
7 8 9 11 11 10 10 10 10 10 10 10 10 9 8 7 6 5 4 4 4 3 3 3 3 2 2 1 1 1 2 3 4 4 5 4 4 4 3 3 2 2 1 1
7 7 8 11 11 11 9 9 10 10 9 9 9 9 7 6 5 4 4 3 3 3 2 2 1 1 1 0 1 1 2 3 4 4 4 4 3 3 2 2 1 1 1 0
7 7 8 12 11 10 9 10 10 10 9 8 8 7 6 5 4 4 3 3 2 2 1 1 0 0 0 0 1 2 2 3 3 3 3 3 3 2 2 1 1 0 -0 -1
7 7 8 11 11 10 10 10 10 9 8 8 7 6 5 4 3 3 2 2 1 1 1 0 0 0 0 1 1 2 3 3 3 3 3 2 2 1 1 0 0 -0 -1 -2
8 9 11 12 12 11 11 10 9 8 8 7 6 5 4 4 3 2 2 1 1 1 0 -0 0 1 2 2 2 3 3 3 3 2 2 1 1 1 0 -0 -1 -1 -2 -2
9 10 11 12 12 11 10 9 8 7 7 6 5 5 4 3 2 2 2 1 1 1 1 0 1 1 2 3 3 3 3 2 2 2 1 1 0 -0 -0 -1 -2 -2 -3 -3
9 10 10 11 10 9 9 7 7 6 6 5 5 4 3 2 2 2 2 1 1 1 1 1 2 2 2 3 3 3 3 2 1 1 0 -0 -1 -1 -1 -2 -2 -3 -4 -4
9 10 10 9 9 8 7 6 6 5 4 4 4 3 2 2 2 1 1 1 1 1 2 2 2 2 2 2 2 3 2 1 1 0 -0 -1 -1 -2 -2 -3 -3 -4 -5 -5
10 10 9 9 8 7 7 6 4 4 3 3 3 3 2 2 1 1 1 1 2 2 2 2 2 2 2 2 2 2 1 1 0 -0 -1 -1 -2 -2 -3 -3 -4 -5 -5 -6
9 9 8 8 7 6 6 5 4 3 2 2 2 2 2 1 1 1 1 1 2 2 2 2 2 2 1 1 1 1 0 -0 -1 -1 -1 -2 -3 -3 -4 -4 -5 -5 -6 -7
8 8 8 7 6 5 5 4 3 2 2 1 1 1 1 1 1 1 1 1 2 2 2 2 2 1 1 0 0 -0 -0 -1 -1 -2 -2 -3 -3 -4 -4 -5 -6 -6 -7 -7
7 6 6 6 5 4 4 3 3 2 1 1 1 1 1 2 1 1 1 1 2 2 2 1 1 1 0 -0 -0 -1 -1 -1 -2 -2 -3 -3 -4 -4 -5 -6 -6 -7 -7 -8
5 5 5 4 4 4 3 3 3 3 2 2 2 2 2 2 1 1 1 1 2 2 1 1 1 -0 -0 -1 -1 -1 -2 -2 -3 -3 -3 -4 -5 -5 -6 -6 -7 -7 -8 -8
4 5 5 5 5 4 3 3 3 3 3 3 2 2 2 2 2 1 1 1 1 1 0 0 -0 -1 -1 -1 -2 -2 -2 -3 -3 -4 -4 -5 -5 -6 -7 -7 -8 -8 -8 -9
4 4 5 5 4 4 4 4 3 3 3 3 2 2 2 2 2 2 1 1 1 0 -0 -1 -1 -1 -1 -2 -2 -2 -3 -3 -4 -4 -5 -5 -6 -7 -7 -8 -8 -9 -9 -9
4 4 4 4 4 4 4 4 4 3 3 3 3 2 2 2 2 1 1 1 0 0 -1 -1 -1 -2 -2 -2 -3 -3 -3 -4 -4 -5 -6 -6 -7 -7 -8 -8 -9 -9 -9 -10
3 3 3 3 3 3 4 4 4 3 3 3 3 3 2 2 1 1 1 0 -1 -1 -1 -2 -2 -2 -2 -3 -3 -3 -4 -4 -5 -6 -6 -7 -7 -8 -8 -9 -9 -9 -10 -10
2 2 2 2 2 2 2 3 3 3 3 3 3 3 2 1 1 0 0 0 -1 -1 -2 -2 -2 -3 -3 -3 -4 -4 -5 -5 -6 -6 -7 -7 -8 -8 -8 -9 -9 -10 -10 -10
1 1 1 1 1 2 2 2 2 3 3 3 3 2 2 2 1 1 -0 -1 -1 -2 -2 -2 -3 -3 -3 -4 -4 -5 -5 -6 -6 -7 -7 -8 -8 -8 -9 -9 -9 -10 -10 -10
1 1 1 1 1 1 1 1 2 2 2 2 2 2 2 1 0 0 -0 -1 -1 -2 -2 -3 -3 -4 -4 -4 -5 -5 -6 -6 -7 -7 -7 -8 -8 -9 -9 -9 -9 -10 -10 -10
0 0 -0 -0 0 0 1 1 1 1 2 2 1 1 1 1 1 -0 -1 -1 -2 -2 -3 -3 -4 -4 -4 -5 -5 -5 -6 -6 -7 -7 -8 -8 -9 -9 -9 -9 -9 -10 -10 -10
-0 -1 -1 -1 -0 0 0 0 1 1 1 1 1 0 0 -0 -0 -1 -1 -2 -2 -3 -3 -4 -4 -4 -5 -5 -5 -6 -6 -7 -7 -8 -8 -8 -9 -9 -9 -9 -9 -10 -10 -10
-1 -1 -1 -2 -1 -1 -0 0 1 1 1 1 1 0 -0 -1 -1 -1 -2 -2 -3 -3 -4 -4 -4 -5 -5 -5 -6 -6 -7 -7 -8 -8 -8 -9 -9 -9 -9 -9 -9 -9 -9 -9
Wind_Speed
9 9 7 9 12 14 17 16 14 15 21 25 22 20 15 11 8 7 6 6 5 2 2 4 8 10 13 14 14 14 15 15 15 15 16 16 16 15 14 13 12 10 9 8
7 11 12 15 16 16 17 18 20 23 26 20 17 13 12 10 6 5 3 3 2 2 4 7 10 12 13 13 13 13 14 14 15 17 17 16 15 15 14 12 10 9 8 6
4 7 8 10 12 14 13 12 13 16 15 14 16 13 10 7 4 2 1 1 2 4 6 9 10 12 12 12 13 14 14 16 16 17 17 16 16 14 13 10 9 8 6 5
4 6 6 4 4 3 4 9 10 11 13 14 13 8 5 4 1 2 3 3 4 6 8 10 11 12 12 13 14 14 15 16 16 17 17 15 14 13 10 8 7 6 5 4
3 5 8 6 3 3 2 6 4 6 10 10 10 3 3 7 6 5 5 6 6 8 10 11 12 12 13 13 13 14 15 15 15 16 16 15 13 11 9 7 7 5 4 3
3 4 4 1 4 4 1 4 1 4 8 9 8 3 2 6 7 8 8 9 9 10 12 12 12 12 14 13 14 14 14 15 14 14 14 13 12 10 7 7 6 4 3 1
7 5 7 3 3 2 2 2 4 5 6 5 3 1 3 6 8 9 10 11 11 11 11 11 11 12 13 14 14 14 15 15 14 13 12 12 10 8 7 6 4 2 1 1
6 6 8 2 2 2 3 4 5 4 3 2 1 4 6 8 9 10 11 11 11 11 11 11 11 13 14 14 14 14 15 15 13 12 10 10 9 7 6 5 3 1 1 2
7 8 5 1 3 3 3 5 4 2 3 0 3 5 7 8 9 9 10 10 11 12 13 11 11 12 15 14 14 15 15 14 12 11 9 8 8 7 4 3 3 2 2 2
5 7 7 5 4 2 1 2 3 2 2 1 4 7 8 8 9 9 10 10 10 12 13 13 13 13 13 14 13 14 14 12 10 10 8 7 6 4 4 3 3 3 3 3
7 8 7 4 2 2 3 3 3 3 2 2 6 8 8 9 9 9 9 9 9 11 13 14 14 13 12 12 13 14 13 11 9 8 7 6 5 4 5 4 3 2 2 2
5 2 2 1 3 4 3 3 3 4 5 5 6 9 10 9 9 9 10 10 11 12 14 14 13 13 11 10 12 13 11 9 7 6 5 5 4 3 4 2 2 1 2 4
3 2 1 2 3 4 5 5 5 5 6 7 8 10 11 10 9 10 11 12 13 13 13 13 13 12 10 9 10 11 10 8 6 5 5 4 4 3 2 2 2 4 5 7
2 1 2 2 3 6 7 7 7 8 8 8 9 10 11 11 11 11 12 12 13 14 13 13 13 11 9 10 11 11 9 8 7 5 5 5 4 3 2 2 3 4 5 9
3 3 1 5 6 7 7 7 8 8 8 9 9 10 11 12 12 12 12 13 13 14 13 13 13 11 9 10 11 10 8 6 6 5 5 4 3 3 2 3 3 4 4 6
3 3 3 4 6 6 6 7 8 8 8 9 10 11 12 12 13 12 11 11 13 13 12 12 12 9 9 10 10 8 7 10 7 5 4 3 3 3 3 3 3 4 4 5
1 2 2 3 5 6 6 7 8 9 10 10 11 13 13 13 13 12 11 11 12 12 11 11 10 9 9 9 9 7 6 6 7 5 4 3 3 3 3 3 3 4 5 7
5 4 5 6 7 8 8 8 9 10 11 12 13 13 13 13 14 13 13 13 14 13 10 9 10 10 9 8 7 6 5 4 4 4 3 3 2 2 2 3 4 5 5 7
5 3 2 4 7 8 9 10 10 11 12 13 13 12 12 12 13 13 12 13 14 12 7 9 14 11 9 8 8 6 5 5 4 3 2 2 3 2 3 3 4 5 6 6
5 3 2 4 7 9 10 11 12 12 11 12 14 14 13 12 11 12 11 9 6 7 9 10 10 8 8 7 8 5 5 4 3 2 2 2 2 3 3 4 4 5 5 6
5 3 4 6 7 8 10 12 13 13 12 12 13 14 14 12 11 11 12 10 7 8 9 12 8 7 6 6 7 5 4 4 3 2 2 2 2 3 4 4 5 6 6 6
5 3 4 6 8 8 8 9 10 12 13 12 13 14 14 13 11 10 8 7 9 12 8 7 6 8 8 7 5 4 4 3 2 2 2 2 2 3 4 5 5 6 6 6
4 3 4 5 7 8 8 9 9 10 12 13 14 14 13 11 9 9 9 6 7 12 8 6 9 11 9 6 4 3 3 2 1 1 2 2 3 3 4 5 5 6 6 7
3 3 4 6 7 8 9 9 9 8 9 9 9 11 12 11 7 6 8 14 14 13 8 10 12 10 8 4 3 2 2 1 1 2 3 3 3 4 4 5 6 6 6 8
2 2 4 6 6 6 8 10 11 11 11 9 10 8 6 6 7 9 9 10 14 13 8 9 10 8 5 3 2 1 1 1 2 2 3 3 4 4 5 5 6 6 7 7
1 1 2 3 4 6 7 8 9 9 10 10 8 7 8 8 11 10 9 9 11 12 8 5 5 5 3 2 1 1 1 2 3 3 3 4 5 5 5 6 7 7 7 8
1 2 3 4 5 6 6 7 9 10 10 11 11 8 9 9 10 10 10 8 8 7 6 5 4 3 2 1 1 1 2 2 3 3 4 4 5 5 6 7 6 6 7 7
Wind_Direction
272 283 266 246 239 230 230 235 249 264 273 282 293 300 303 303 302 300 305 310 313 328 95 94 99 104 109 112 116 123 128 132 133 130 126 122 120 118 116 114 112 109 108 109
266 259 255 257 252 245 243 245 251 264 273 280 290 298 307 310 303 291 292 309 324 54 97 110 110 109 110 114 118 123 128 129 127 125 122 119 117 114 111 108 108 108 113 121
270 279 281 262 245 236 236 239 247 261 274 297 303 308 316 320 307 270 155 67 65 80 95 103 107 111 114 117 120 124 127 127 125 122 119 117 116 113 113 112 113 114 116 118
286 299 253 247 136 140 245 261 254 265 282 293 301 307 342 352 14 106 117 107 97 95 94 97 102 106 109 115 121 125 126 124 122 120 118 115 113 112 112 114 117 117 115 111
261 275 275 267 153 148 255 279 270 275 293 305 308 295 51 37 57 87 101 98 95 96 101 103 106 111 116 119 122 124 124 122 120 119 118 116 115 113 113 114 111 109 107 104
250 271 266 2 122 130 186 266 307 314 314 323 328 322 20 54 76 86 90 93 96 99 103 107 111 116 122 124 124 122 119 116 115 115 116 114 113 110 107 107 107 110 117 135
234 252 270 292 124 131 257 295 320 317 321 331 339 10 61 76 88 94 97 99 102 103 106 112 118 121 122 121 119 118 116 112 109 107 108 109 108 107 107 106 108 116 137 252
202 225 251 215 139 234 277 301 303 314 332 340 64 90 91 96 101 103 106 109 111 112 114 117 123 124 120 117 116 113 110 106 104 103 106 110 109 105 103 103 97 83 52 359
204 227 256 209 239 258 281 297 319 329 336 17 137 115 106 108 111 113 113 113 117 120 118 116 117 121 121 120 118 114 109 106 105 102 99 102 105 105 100 89 73 50 31 360
261 263 275 282 282 306 12 348 7 5 324 188 140 127 119 117 113 113 113 118 123 122 119 115 113 114 116 119 118 114 110 108 106 105 100 90 84 85 88 77 59 35 18 1
254 271 278 276 8 37 64 65 54 38 36 98 127 127 122 119 116 114 113 112 113 115 113 111 112 112 113 116 117 112 109 107 104 101 103 96 83 71 79 83 89 63 21 0
245 284 314 38 54 57 77 73 78 80 74 83 112 121 118 115 114 116 116 113 109 108 110 111 111 110 109 112 116 115 112 108 105 103 99 99 98 81 78 105 92 14 325 322
280 348 20 91 66 70 87 87 86 92 98 98 100 111 114 115 115 115 113 112 113 113 113 112 110 107 106 107 108 109 112 110 104 100 96 89 78 73 38 348 308 305 310 320
353 335 261 167 109 96 98 96 91 87 86 93 101 106 110 110 109 108 109 112 113 113 112 111 108 104 102 103 102 101 100 98 96 90 86 80 73 59 43 15 349 336 333 333
12 11 67 101 105 108 113 115 111 105 103 100 103 109 113 114 112 111 113 115 114 112 111 110 106 102 100 103 101 98 95 91 88 88 84 80 68 47 26 11 352 333 331 337
26 53 100 129 140 141 143 140 132 127 122 118 114 112 111 112 111 111 112 116 118 116 114 110 105 102 101 101 98 92 91 98 95 90 82 71 55 39 23 4 345 334 328 320
259 234 193 182 176 169 164 154 143 138 131 125 122 120 119 117 113 109 105 102 103 103 104 106 104 98 94 96 99 102 97 94 92 84 75 64 48 30 9 351 335 324 315 319
265 258 218 201 184 172 159 144 138 136 134 130 128 127 127 125 121 117 113 108 101 92 86 94 98 94 88 88 94 98 99 94 86 84 72 57 33 10 352 338 325 318 315 322
312 293 234 182 167 157 148 141 137 135 135 136 134 129 123 121 121 120 118 114 112 108 102 105 106 95 90 91 95 90 93 91 85 77 63 23 10 357 344 329 318 313 314 318
354 12 92 123 133 138 140 137 136 138 139 135 129 125 123 123 124 119 110 98 97 116 121 112 102 97 93 92 93 87 88 87 83 70 45 18 358 343 331 321 316 312 311 313
8 45 90 112 120 126 136 140 141 140 136 134 134 133 129 124 120 118 114 107 99 109 114 114 105 102 97 99 92 87 83 79 69 54 25 359 343 330 322 318 317 315 312 311
7 53 93 111 121 123 128 132 136 137 134 130 129 129 128 125 118 104 94 117 129 125 113 106 105 111 113 100 88 88 82 71 56 32 3 342 328 319 314 313 309 307 307 305
8 55 99 119 126 124 121 125 131 136 137 139 140 140 136 132 130 127 121 125 128 125 116 112 120 118 110 95 93 89 83 68 36 354 326 313 306 302 300 301 299 301 302 303
18 61 94 110 118 124 126 123 118 118 118 120 125 130 131 126 107 95 123 136 135 122 115 124 123 117 108 96 93 88 78 49 346 314 305 301 298 296 294 295 296 297 298 300
36 83 114 129 133 133 128 124 120 120 118 116 111 106 105 113 125 127 126 131 131 121 116 123 121 114 102 96 93 85 56 297 286 297 300 304 301 297 292 290 292 295 297 297
22 112 130 137 137 139 143 143 142 140 136 130 119 110 109 111 117 121 121 120 122 122 117 108 109 108 97 93 81 36 333 317 323 318 301 296 291 291 290 292 294 294 293 294
74 110 114 118 134 148 153 155 154 152 150 143 134 127 125 124 123 123 121 119 117 116 115 112 109 105 101 83 17 332 314 303 297 292 290 288 287 286 289 290 291 291 292 292
Height
1437 1435 1435 1436 1437 1437 1439 1439 1439 1426 1419 1408 1404 1401 1397 1393 1390 1388 1386 1384 1381 1379 1378 1379 1381 1384 1387 1391 1396 1401 1407 1412 1416 1422 1428 1434 1441 1448 1454 1459 1464 1468 1471 1473
1436 1431 1430 1429 1427 1427 1427 1426 1424 1420 1412 1404 1400 1397 1393 1390 1387 1385 1383 1382 1380 1379 1379 1380 1383 1386 1389 1393 1398 1403 1408 1412 1417 1422 1429 1435 1442 1449 1454 1459 1464 1467 1470 1471
1435 1425 1424 1424 1414 1414 1416 1415 1416 1413 1406 1400 1397 1393 1390 1388 1385 1383 1382 1381 1380 1379 1380 1382 1385 1388 1392 1396 1400 1405 1409 1413 1418 1424 1430 1437 1444 1450 1455 1460 1464 1466 1468 1469
1436 1431 1430 1414 1404 1406 1409 1408 1407 1405 1402 1399 1395 1392 1389 1387 1384 1383 1382 1381 1381 1381 1382 1385 1387 1391 1395 1399 1403 1407 1411 1415 1421 1427 1433 1440 1446 1452 1456 1460 1463 1465 1467 1467
1437 1431 1420 1406 1404 1406 1408 1406 1402 1402 1399 1396 1392 1389 1389 1387 1385 1384 1383 1383 1383 1384 1385 1387 1390 1394 1398 1402 1406 1410 1414 1419 1424 1431 1436 1442 1448 1453 1457 1460 1462 1464 1465 1465
1435 1433 1424 1407 1404 1404 1408 1405 1401 1399 1397 1395 1391 1390 1391 1389 1386 1385 1385 1385 1385 1386 1388 1391 1394 1398 1402 1406 1410 1414 1418 1422 1429 1435 1440 1445 1450 1454 1457 1460 1462 1463 1463 1463
1433 1430 1417 1403 1402 1404 1409 1405 1400 1397 1396 1394 1392 1393 1392 1389 1388 1387 1387 1387 1388 1390 1392 1395 1398 1402 1405 1409 1413 1417 1422 1427 1433 1439 1444 1448 1451 1455 1457 1459 1461 1461 1461 1460
1427 1428 1420 1401 1401 1403 1402 1398 1397 1395 1394 1393 1392 1391 1390 1390 1390 1389 1389 1390 1391 1393 1396 1399 1403 1406 1409 1413 1417 1422 1427 1432 1437 1442 1446 1450 1452 1455 1457 1458 1459 1459 1458 1458
1416 1413 1401 1398 1398 1397 1397 1396 1394 1393 1392 1391 1390 1390 1390 1391 1391 1392 1392 1393 1395 1397 1400 1404 1408 1411 1413 1417 1421 1426 1431 1436 1441 1445 1448 1451 1453 1455 1456 1457 1457 1457 1456 1455
1405 1400 1397 1396 1395 1394 1394 1393 1391 1390 1389 1389 1389 1389 1390 1392 1393 1394 1395 1397 1399 1401 1404 1408 1412 1415 1418 1422 1427 1431 1435 1439 1443 1446 1449 1452 1454 1455 1455 1456 1455 1454 1453 1451
1402 1398 1396 1394 1393 1393 1391 1390 1389 1388 1387 1387 1388 1389 1390 1392 1394 1395 1397 1400 1403 1405 1407 1411 1415 1419 1423 1427 1431 1435 1439 1442 1445 1448 1450 1452 1453 1454 1454 1454 1454 1452 1450 1448
1399 1395 1394 1394 1392 1391 1390 1389 1388 1387 1387 1387 1388 1389 1390 1392 1395 1397 1399 1402 1405 1408 1410 1414 1418 1423 1427 1431 1435 1438 1441 1444 1447 1449 1451 1452 1453 1453 1453 1453 1451 1449 1447 1445
1394 1393 1393 1392 1391 1390 1389 1388 1387 1387 1387 1387 1389 1390 1391 1394 1396 1399 1401 1404 1407 1410 1413 1417 1422 1426 1430 1434 1438 1441 1443 1446 1448 1449 1451 1452 1452 1452 1451 1450 1449 1447 1445 1442
1391 1391 1390 1390 1389 1389 1388 1387 1387 1387 1388 1389 1390 1391 1393 1395 1398 1401 1403 1406 1410 1413 1417 1421 1425 1429 1433 1437 1440 1443 1445 1447 1449 1450 1451 1451 1451 1450 1449 1447 1446 1444 1442 1439
1389 1389 1389 1388 1388 1387 1387 1387 1387 1388 1389 1390 1392 1393 1395 1397 1400 1403 1406 1410 1413 1417 1420 1424 1428 1432 1436 1440 1442 1444 1446 1448 1449 1450 1450 1450 1449 1448 1447 1445 1443 1441 1439 1436
1388 1387 1386 1386 1386 1386 1386 1387 1388 1389 1390 1392 1393 1395 1398 1400 1403 1406 1410 1413 1416 1420 1424 1428 1431 1435 1438 1441 1444 1446 1447 1448 1449 1449 1449 1448 1447 1446 1444 1443 1441 1438 1435 1433
1386 1385 1385 1384 1384 1385 1386 1387 1388 1389 1391 1393 1395 1397 1400 1403 1406 1409 1413 1417 1421 1424 1428 1431 1434 1438 1441 1443 1445 1446 1447 1448 1448 1448 1447 1446 1445 1444 1442 1440 1438 1435 1433 1430
1384 1384 1383 1383 1383 1384 1385 1387 1388 1390 1392 1394 1397 1400 1403 1406 1408 1412 1416 1420 1424 1428 1432 1435 1438 1440 1442 1444 1446 1446 1447 1447 1447 1446 1445 1444 1443 1441 1440 1437 1435 1433 1430 1427
1381 1381 1380 1381 1381 1383 1384 1386 1388 1391 1393 1396 1399 1402 1406 1409 1412 1416 1420 1423 1427 1429 1434 1437 1439 1442 1443 1445 1445 1446 1446 1446 1445 1445 1444 1442 1441 1439 1437 1435 1433 1430 1427 1424
1379 1379 1379 1379 1380 1382 1384 1386 1389 1392 1395 1398 1401 1404 1408 1412 1416 1419 1423 1426 1430 1432 1435 1438 1440 1442 1443 1444 1445 1445 1445 1445 1444 1443 1442 1440 1439 1437 1435 1432 1430 1427 1425 1422
1379 1379 1378 1379 1380 1382 1384 1386 1389 1392 1396 1399 1403 1406 1410 1414 1418 1421 1424 1428 1432 1434 1437 1439 1441 1442 1443 1444 1444 1444 1444 1443 1442 1441 1440 1438 1436 1434 1432 1430 1427 1425 1422 1419
1380 1379 1379 1380 1381 1382 1385 1387 1390 1393 1397 1401 1405 1408 1412 1415 1419 1423 1427 1430 1432 1435 1437 1439 1441 1442 1443 1443 1443 1443 1442 1442 1441 1439 1438 1436 1434 1432 1430 1427 1425 1422 1420 1417
1381 1380 1380 1381 1381 1383 1385 1388 1391 1395 1398 1402 1405 1409 1413 1416 1420 1423 1426 1430 1433 1435 1438 1439 1441 1441 1442 1442 1442 1442 1441 1440 1439 1437 1435 1434 1432 1429 1427 1425 1422 1420 1417 1414
1382 1381 1381 1381 1382 1384 1385 1388 1392 1396 1400 1403 1407 1411 1414 1417 1421 1425 1428 1430 1433 1435 1437 1439 1440 1441 1441 1441 1440 1440 1439 1438 1437 1435 1433 1431 1429 1427 1424 1422 1420 1417 1415 1412
1382 1382 1381 1382 1383 1384 1386 1388 1392 1395 1399 1403 1407 1411 1415 1419 1421 1424 1427 1430 1432 1435 1436 1438 1439 1439 1440 1439 1439 1438 1437 1436 1434 1432 1431 1428 1426 1424 1422 1419 1417 1414 1412 1409
1382 1382 1382 1382 1383 1384 1386 1388 1391 1394 1398 1402 1406 1410 1414 1418 1422 1424 1427 1429 1432 1434 1436 1437 1438 1438 1438 1438 1437 1436 1435 1434 1432 1430 1428 1426 1424 1421 1419 1417 1414 1412 1409 1407
1382 1381 1381 1381 1382 1384 1386 1388 1391 1394 1398 1401 1405 1409 1413 1417 1420 1423 1426 1429 1431 1433 1434 1435 1436 1436 1436 1436 1435 1434 1433 1431 1429 1427 1425 1423 1421 1418 1416 1414 1411 1409 1407 1404